Regional Weather Roundup
Issued by NWS

Home | Current Version | Previous Version | Graphics & Text | Print | Product List | Glossary On
Versions: 1 2 3 4 5 6 7 8 9 10 11 12 13 14 15 16 17 18 19 20 21 22 23 24 25 26 27 28 29 30 31 32 33 34 35 36 37 38 39 40 41 42 43 44 45 46 47 48 49 50
000
ASUS43 KLSX 260707
RWRMO

WEATHER SUMMARY FOR MISSOURI
NATIONAL WEATHER SERVICE SPRINGFIELD MO
100 AM CST SUN FEB 26 2017

NOTE: "FAIR" INDICATES FEW OR NO CLOUDS BELOW 12,000 FEET WITH NO
       SIGNIFICANT WEATHER AND/OR OBSTRUCTIONS TO VISIBILITY.
       CURRENT SKY AND/OR WEATHER CONDITIONS ARE NOT AVAILABLE FOR
       CHILLICOTHE AND FARMINGTON.

MOZ001>031-035>038-043-044-053-054-260800-
...NORTHERN AND WESTERN MISSOURI...

CITY           SKY/WX    TMP DP  RH WIND       PRES   REMARKS
KANSAS CTY INT CLEAR     35  14  42 S15       29.97F WCI  25
KANSAS C DTWN  CLEAR     37  12  35 S9        29.99F
LEE`S SUMMIT   CLEAR     34  13  41 S12       30.00F WCI  25
ST JOSEPH      CLOUDY    33  17  51 S9        29.97F WCI  25
CHILLICOTHE      N/A     28  14  55 S6        30.01F WCI  22
KIRKSVILLE     MOCLDY    26  15  63 S9        30.01F WCI  17

$$
MOZ066>068-077>081-088>096-101>105-260800-
...SOUTHWEST MISSOURI...

CITY           SKY/WX    TMP DP  RH WIND       PRES   REMARKS
SPRINGFIELD    CLEAR     27  16  63 S7        30.07S WCI  19
JOPLIN         CLEAR     33  14  45 SE8       30.07F WCI  26
BRANSON        CLOUDY    32  14  47 SE7       30.09F WCI  26

$$
MOZ032>034-039>042-045>050-055>058-069>072-260800-
...CENTRAL MISSOURI...

CITY           SKY/WX    TMP DP  RH WIND       PRES   REMARKS
COLUMBIA       CLEAR     25  13  60 S9        30.07F WCI  15
JEFFERSON CITY CLEAR     25  16  68 SE6       30.10F WCI  18
ROLLA          CLEAR     25  12  58 SE8       30.07F WCI  16
SEDALIA        PTCLDY    32  14  47 S13       30.05F WCI  22
WHITEMAN AFB   CLEAR     28  15  59 S9        30.03S WCI  19
WARRENSBURG    PTCLDY    32  16  51 SE6       30.03S WCI  26
OSAGE BEACH    CLEAR     25  15  66 S7        30.10F WCI  17

$$
MOZ051-052-059>065-260800-
...EAST CENTRAL MISSOURI...

CITY           SKY/WX    TMP DP  RH WIND       PRES   REMARKS
ST LOUIS INTL  PTCLDY    30  14  51 SE3       30.12F
SPIRIT OF STL  CLEAR     21  16  81 CALM      30.12F
ST CHARLES     PTCLDY    24  14  65 E5        30.12F WCI  18

$$
MOZ072>076-082>087-097>100-106>115-260800-
...SOUTH CENTRAL AND SOUTHEAST MISSOURI...

CITY           SKY/WX    TMP DP  RH WIND       PRES   REMARKS
CAPE GIRARDEAU CLEAR     27  17  66 CALM      30.16S
FARMINGTON     CLEAR     22  18  85 CALM      30.13S
POPLAR BLUFF   PTCLDY    29  23  78 CALM      30.16R
WEST PLAINS    CLEAR     27  16  63 CALM      30.12R

$$



USA.gov is the U.S. government's official web portal to all federal, state and local government web resources and services.